DW3545 Weather Reports


time (UTC)temp
C
wind
direction
speed
KPH
gust
KPH
rain 1hr
cm
rain 24hr
cm
rain mn
cm
humidity
%
barometer
mb
20260506084058 12 270 16.1 37.0 0.00 0.00 0.00 85 1018.6
20260506083017 12 270 16.1 35.4 0.00 0.00 0.00 86 1018.5
20260506082017 12 270 16.1 35.4 0.00 0.00 0.00 87 1018.5
20260506081017 11 270 16.1 37.0 0.00 0.00 0.00 88 1018.4
20260506073038 11 270 14.5 41.8 0.00 0.00 0.00 90 1018.7
20260506072017 11 270 12.9 27.4 0.00 0.00 0.00 90 1018.8
20260506071017 11 270 12.9 25.7 0.00 0.00 0.00 91 1018.9
20260506062017 10 270 14.5 29.0 0.00 0.00 0.00 92 1018.9
20260506061017 10 270 12.9 27.4 0.00 0.00 0.00 92 1018.9
20260506051017 8 270 14.5 30.6 0.00 0.00 0.00 90 1019.0
20260506045038 8 270 14.5 29.0 0.00 0.00 0.00 88 1019.1
20260506044018 8 270 9.7 19.3 0.00 0.00 0.00 85 1019.2
20260506043017 9 270 12.9 25.7 0.00 0.00 0.00 83 1019.1
20260506042017 9 270 9.7 17.7 0.00 0.00 0.00 81 1019.0
20260506041017 9 270 9.7 20.9 0.00 0.00 0.00 80 1018.9
20260506040017 9 270 11.3 25.7 0.00 0.00 0.00 78 1018.8
20260506035037 9 270 11.3 25.7 0.00 0.00 0.00 77 1018.7
20260506034017 10 270 11.3 20.9 0.00 0.00 0.00 75 1018.6
20260506033017 10 270 11.3 24.1 0.00 0.00 0.00 75 1018.5
20260506032017 9 270 9.7 20.9 0.00 0.00 0.00 76 1018.4
20260506031037 9 270 8.0 19.3 0.00 0.00 0.00 76 1018.4
20260506030038 9 270 9.7 20.9 0.00 0.00 0.00 76 1018.4
20260506025037 9 270 11.3 24.1 0.00 0.00 0.00 76 1018.4
20260506024018 9 270 9.7 24.1 0.00 0.00 0.00 75 1018.2
20260506023037 9 270 11.3 25.7 0.00 0.00 0.00 74 1018.1
20260506022017 10 270 9.7 22.5 0.00 0.00 0.00 73 1018.1
20260506021018 10 270 12.9 24.1 0.00 0.00 0.00 73 1018.0
20260506020018 10 270 12.9 25.7 0.00 0.00 0.00 72 1017.9
20260506015017 10 270 12.9 33.8 0.00 0.00 0.00 73 1017.9
20260506014017 10 270 12.9 27.4 0.00 0.00 0.00 74 1017.8
20260506013037 9 270 9.7 20.9 0.00 0.00 0.00 75 1017.6
20260506012018 9 270 12.9 24.1 0.00 0.00 0.00 75 1017.6
20260506011058 9 270 11.3 27.4 0.00 0.00 0.00 76 1017.4
20260506010018 9 270 11.3 24.1 0.00 0.00 0.00 76 1017.4
20260506005017 9 270 11.3 30.6 0.00 0.00 0.00 76 1017.3
20260506004038 8 270 6.4 16.1 0.00 0.00 0.00 77 1017.1
20260506003037 8 270 4.8 16.1 0.00 0.00 0.00 77 1016.9
20260506002017 8 270 4.8 14.5 0.00 0.00 0.00 77 1016.7
20260506001017 8 270 9.7 17.7 0.00 0.00 0.00 77 1016.5
20260506000017 8 270 8.0 20.9 0.00 0.00 0.00 77 1016.3
20260505235018 8 270 6.4 14.5 0.00 0.00 0.00 76 1016.1
20260505234017 9 270 8.0 17.7 0.00 0.00 0.00 76 1016.0
20260505233158 9 90 8.0 22.5 0.00 0.00 0.00 75 1015.7
20260505232017 9 113 6.4 17.7 0.00 0.00 0.00 74 1015.5
20260505231038 10 90 4.8 9.7 0.00 0.00 0.00 73 1015.3
20260505230017 10 270 3.2 12.9 0.00 0.00 0.00 72 1015.1
20260505225017 10 90 6.4 17.7 0.00 0.00 0.00 71 1014.9
20260505224017 10 90 4.8 12.9 0.00 0.00 0.00 70 1014.7
20260505223017 11 90 4.8 16.1 0.00 0.00 0.00 69 1014.4
20260505222018 11 270 8.0 25.7 0.00 0.00 0.00 68 1014.4
20260505221017 11 270 8.0 24.1 0.00 0.00 0.00 68 1014.3
20260505220017 11 270 9.7 19.3 0.00 0.00 0.00 67 1014.1
20260505215017 12 270 9.7 19.3 0.00 0.00 0.00 66 1014.0
20260505214017 12 270 14.5 30.6 0.00 0.00 0.00 64 1013.7
20260505213017 12 270 11.3 29.0 0.00 0.00 0.00 62 1013.5
20260505212017 13 270 11.3 29.0 0.00 0.00 0.00 58 1013.3
20260505211017 13 270 12.9 33.8 0.00 0.00 0.00 54 1013.0
20260505210017 13 270 14.5 32.2 0.00 0.00 0.00 48 1013.2
20260505205017 14 270 9.7 24.1 0.00 0.00 0.00 45 1013.0
20260505204017 14 270 11.3 29.0 0.00 0.00 0.00 42 1012.8
20260505203017 15 270 11.3 27.4 0.00 0.00 0.00 41 1012.8
20260505202018 15 270 11.3 29.0 0.00 0.00 0.00 40 1012.6
20260505201038 15 270 11.3 29.0 0.00 0.00 0.00 39 1012.7
20260505200018 15 270 12.9 29.0 0.00 0.00 0.00 40 1012.6
20260505195017 14 270 16.1 37.0 0.00 0.00 0.00 40 1012.6
20260505194018 14 270 12.9 30.6 0.00 0.00 0.00 42 1012.4
20260505193037 14 270 14.5 29.0 0.00 0.00 0.00 42 1012.4
20260505192058 14 270 16.1 35.4 0.00 0.00 0.00 41 1012.2
20260505191057 14 270 14.5 27.4 0.00 0.00 0.00 42 1012.0
20260505190017 14 270 17.7 35.4 0.00 0.00 0.00 44 1011.8
20260505185017 14 270 19.3 38.6 0.00 0.00 0.00 42 1011.7
20260505184017 14 270 17.7 38.6 0.00 0.00 0.00 42 1011.7
20260505183018 15 270 14.5 32.2 0.00 0.00 0.00 44 1011.8
20260505182017 15 270 12.9 30.6 0.00 0.00 0.00 44 1011.7
20260505181017 14 270 16.1 33.8 0.00 0.00 0.00 43 1011.8
20260505180017 14 270 16.1 40.2 0.00 0.00 0.00 41 1011.8
20260505175017 14 270 17.7 41.8 0.00 0.00 0.00 40 1011.8
20260505174037 14 270 17.7 35.4 0.00 0.00 0.00 41 1011.7
20260505173017 15 270 11.3 29.0 0.00 0.00 0.00 43 1011.6
20260505172057 15 270 14.5 37.0 0.00 0.00 0.00 42 1011.5
20260505171017 15 270 16.1 32.2 0.00 0.00 0.00 42 1011.3
20260505170017 15 270 14.5 32.2 0.00 0.00 0.00 42 1011.2
20260505165017 15 270 12.9 46.7 0.00 0.00 0.00 40 1011.2
20260505164017 15 270 12.9 27.4 0.00 0.00 0.00 39 1011.1
20260505163017 15 270 14.5 33.8 0.00 0.00 0.00 39 1011.0
20260505162017 14 270 16.1 37.0 0.00 0.00 0.00 40 1010.9
20260505161017 15 270 11.3 25.7 0.00 0.00 0.00 41 1010.9
20260505153017 14 270 12.9 37.0 0.00 0.00 0.00 45 1010.6
20260505152018 13 270 12.9 29.0 0.00 0.00 0.00 46 1010.5
20260505151017 13 270 16.1 29.0 0.00 0.00 0.00 47 1010.3
20260505125017 11 270 9.7 25.7 0.00 0.03 0.00 69 1008.9
20260505124038 10 270 14.5 37.0 0.00 0.03 0.00 71 1008.8
20260505123037 10 293 9.7 24.1 0.00 0.03 0.00 73 1008.7
20260505122017 10 270 9.7 30.6 0.00 0.03 0.00 75 1008.5
20260505121017 10 270 11.3 25.7 0.00 0.03 0.00 75 1008.3
20260505120017 9 270 8.0 17.7 0.00 0.03 0.00 76 1008.2
20260505115037 9 270 9.7 22.5 0.00 0.03 0.00 77 1008.3
20260505114018 8 270 12.9 20.9 0.00 0.03 0.00 77 1008.4
20260505113017 8 270 8.0 19.3 0.00 0.03 0.00 77 1008.3
20260505112017 8 270 8.0 22.5 0.00 0.03 0.00 77 1008.1
20260505111017 8 270 6.4 19.3 0.00 0.03 0.00 77 1007.7
20260505102017 7 270 6.4 25.7 0.00 0.03 0.00 80 1006.8
20260505101017 7 270 9.7 19.3 0.00 0.03 0.00 81 1006.8
20260505100017 7 270 9.7 24.1 0.00 0.03 0.00 81 1006.7
20260505095017 6 113 8.0 25.7 0.00 0.03 0.00 81 1006.6
20260505094017 6 270 6.4 16.1 0.00 0.03 0.00 82 1006.5
20260505093017 6 90 6.4 20.9 0.00 0.03 0.00 83 1006.0
20260505092017 5 270 8.0 17.7 0.00 0.03 0.00 83 1006.0
20260505091017 5 68 8.0 19.3 0.00 0.03 0.00 84 1005.8
20260505090017 5 90 6.4 16.1 0.00 0.03 0.00 85 1005.7
20260505085017 4 293 6.4 14.5 0.00 0.03 0.00 86 1005.8